User: anonymous   Login
Location: Raven Hill Discovery Center
(45.1336°N, 85.0553°W)
Time: 13:19:26
(UTC-04:00)
Language:

Cosmos 1470 - Orbit

View from above orbital plane
View from above orbital plane
View from above satellite
View from above satellite

Ground track
Ground track

The orbit data is extracted from the following two-line orbital elements,

1 14147U 83061A   16269.19510260  .00000336  00000-0  18568-4 0  9997
2 14147  82.4814 299.1307 0017547  91.4299 268.8940 15.10310791564814
Epoch (UTC): 25 September 2016 04:40:56
Eccentricity: 0.0017547
inclination: 82.4814°
perigee height: 523 km
apogee height: 547 km
right ascension of ascending node: 299.1307°
argument of perigee: 91.4299°
revolutions per day: 15.10310791
mean anomaly at epoch: 268.8940°
orbit number at epoch: 56481

The dashed part of the orbit path shows where the satellite is in the earth's shadow,  

DLR